Regional Weather Roundup
Issued by NWS

Home | Current Version | Previous Version | Graphics & Text | Print | Product List | Glossary On
Versions: 1 2 3 4 5 6 7 8 9 10 11 12 13 14 15 16 17 18 19 20 21 22 23 24 25 26 27 28 29 30 31 32 33 34 35 36 37 38 39 40 41 42 43 44 45 46 47 48 49 50
703
ASUS43 KMPX 240310
RWRMN
WEATHER ROUNDUP FOR MINNESOTA
NATIONAL WEATHER SERVICE TWIN CITIES/CHANHASSEN MN
1000 PM CDT SAT JUL 23 2016


NOTE: "FAIR" INDICATES FEW OR NO CLOUDS BELOW 12,000 FEET WITH NO
SIGNIFICANT WEATHER AND/OR OBSTRUCTIONS TO VISIBILITY. N/A MEANS
CURRENT SKY AND/OR WEATHER CONDITIONS ARE NOT AVAILABLE.

MNZ060>063-068>070-240400-
   Twin Cities Metro

CITY           SKY/WX    TMP DP  RH WIND       PRES   REMARKS
TWIN CITIES    PTCLDY    75  71  87 SE7       29.78S
ST PAUL        CLEAR     74  71  91 SE8       29.78S
CRYSTAL        PTCLDY    74  69  85 E5        29.77S
BLAINE         CLEAR     73  72  94 E3        29.78F
LAKEVILLE      MOCLDY    73  73 100 SE6       29.79S
EDEN PRAIRIE   MOCLDY    76  72  87 E5        29.77S
LAKEVILLE      MOCLDY    73  73 100 SE6       29.79S
SOUTH ST PAUL  CLEAR     73  72  95 SE3       29.78S
LAKE ELMO      FAIR      72  70  94 E6        29.80F
$$
MNZ001>005-007-008-013>017-022>024-027-028-240400-
   Northwest Minnesota

CITY           SKY/WX    TMP DP  RH WIND       PRES   REMARKS
BEMIDJI        CLOUDY    73  68  83 SE8       29.74R
HALLOCK        MOCLDY    72  70  94 CALM      29.68S
ROSEAU         CLOUDY    72  66  83 SW3       29.70S
WARROAD        CLOUDY    72  68  88 CALM      29.70F
THIEF RVR FALL CLOUDY    71  70  96 W5        29.73R
CROOKSTON      CLOUDY    72  72 100 CALM      29.73R
FOSSTON        DRIZZLE   72  70  94 S7        29.74R
DETROIT LAKES  TSTM      75  70  83 W12G22    29.77R
MOORHEAD       CLOUDY    73  72  94 NW5       29.74R
PARK RAPIDS    CLOUDY    75  69  81 S10       29.75R
MAHNOMEN       MOCLDY    70  67  90 S5        29.74R
$$
MNZ006-009>011-018-025>026-240400-
   North Central Minnesota

CITY           SKY/WX    TMP DP  RH WIND       PRES   REMARKS
BAUDETTE       CLOUDY    74  69  85 S5        29.71S
FLAG ISLAND    TSTM      72  70  94 SW3       29.69S
INTL FALLS     MOCLDY    71  66  84 SE5       29.74R
WASKISH        CLOUDY    73  66  78 SE6       29.73R
BIG FORK       MOCLDY    72  66  83 SE3       29.77R
LONGVILLE      CLOUDY    70  66  88 SE7       29.76S
GRAND RAPIDS   PTCLDY    69  65  86 SE8       29.79F
CRANE LAKE     CLEAR     66  64  94 SE1       29.80S
ORR            CLOUDY    70  63  78 SE7       29.76S
COOK           CLEAR     70  64  83 SE6       29.80S
WALKER         CLOUDY    72  67  85 SE5       29.75S
$$
MNZ012-019>021-037-240400-
   Northeast Minnesota

CITY           SKY/WX    TMP DP  RH WIND       PRES   REMARKS
DULUTH         MOCLDY    63  59  87 SE9       29.82F
ELY            CLEAR     66  57  72 SE9       29.82F
HIBBING        CLOUDY    67  64  90 SE8       29.80S
EVELETH        CLOUDY    68  64  87 CALM      29.82F
DULUTH HARBOR  CLOUDY    64  61  88 NE8       29.82F
TWO HARBORS    MOCLDY    68  61  77 NE5       29.81F
SILVER BAY     CLEAR     64  59  82 NE5       29.81F
GRAND MARAIS     N/A     66  55  67 NE9       29.83F
G MARAIS ARPRT CLOUDY    64  54  68 E8        29.89F
$$
MNZ029>031-032-039>041-046>048-054>057-064-240400-
   West Central Minnesota

CITY           SKY/WX    TMP DP  RH WIND       PRES   REMARKS
FERGUS FALLS   TSTM      75  75 100 SW9       29.75R
WHEATON        RAIN      75  70  83 N12G21    29.76R
MORRIS         CLOUDY    77  75  94 SE5       29.72S
ALEXANDRIA     CLOUDY    75  72  90 SE8       29.76S
ELBOW LAKE     CLOUDY    75  74  96 S7        29.73S
WADENA         CLOUDY    73  70  88 SE8       29.75R
GLENWOOD       CLOUDY    73  72  94 SE8       29.76S
APPLETON       CLEAR     79  73  83 SE8       29.71S
BENSON         PTCLDY    77  72  83 S8        29.73S
ORTONVILLE     DRIZZLE   79  75  89 SW6       29.73R
MADISON        PTCLDY    81  77  89 SE6       29.72S
WILLMAR        FAIR      75  73  94 SE5       29.76R
$$
MNZ033>034-036-042>043-049>051-058-059-240400-
   Central Minnesota

CITY           SKY/WX    TMP DP  RH WIND       PRES   REMARKS
ST CLOUD       CLOUDY    72  72 100 E5        29.77R
SAUK CENTRE    MOCLDY    73  71  95 SE7       29.76S
PAYNESVILLE    CLEAR     74  74 100 SE7       29.76S
AITKIN         CLOUDY    72  64  78 E3        29.77S
PINE RIVER     CLOUDY    72  70  94 SE6       29.79F
BRAINERD       CLOUDY    72  69  90 VRB3      29.77S
STAPLES        CLOUDY    73  66  78 SE6       29.75S
LONG PRAIRIE   CLOUDY    72  70  94 E5        29.77S
LITTLE FALLS   CLOUDY    72  68  88 SE6       29.77R
LITCHFIELD     CLEAR     75  75 100 SE5       29.76S
BUFFALO        PTCLDY    73  70  89 E3        29.78F
MAPLE LAKE     PTCLDY    74  73  94 SE3       29.78S
HUTCHINSON     CLEAR     76  75  96 E7        29.77S
$$
MNZ037-044-045-052-053-240400-
   East Central Minnesota

CITY           SKY/WX    TMP DP  RH WIND       PRES   REMARKS
PRINCETON      CLEAR     73  70  88 E6        29.78F
MORA           CLOUDY    70  68  94 E5        29.80F
CAMBRIDGE      CLOUDY    73  66  78 SE3       29.77F
RUSH CITY      CLOUDY    71  69  92 SE3       29.79F
MOOSE LAKE     CLOUDY    66  63  88 CALM      29.79F
HINCKLEY       CLOUDY    72  70  94 E3        29.80F
CLOQUET        MOCLDY    63  59  88 E7        29.82F
MCGREGOR       CLEAR     68  64  88 SE6       29.79F
$$
MNZ071>073-080-081-089-090-097-098-240400-
   Southwest Minnesota

CITY           SKY/WX    TMP DP  RH WIND       PRES   REMARKS
MONTEVIDEO     CLEAR     77  77 100 S7        29.75R
GRANITE FALLS  PTCLDY    80  78  95 CALM      29.74R
CANBY          CLEAR     81  79  92 CALM      29.74R HX  91
MARSHALL       CLEAR     82  78  88 S9        29.74R HX  91
REDWOOD FALLS  CLEAR     81  76  84 S9        29.73S
OLIVIA         MOCLDY    77  73  88 SE6       29.74S
PIPESTONE      CLEAR     81  79  94 S5        29.78R
WINDOM         CLEAR     81  75  83 S5        29.78S
WORTHINGTON    CLEAR     79  77  94 S7        29.80R
JACKSON        CLEAR     79  73  83 S6        29.79S
TRACY          CLEAR     82  78  88 S10       29.75S HX  90
SLAYTON        CLEAR     78  76  95 S6        29.80R
$$
MNZ065>067-074>077-082>085-091>093-240400-
   South Central Minnesota

CITY           SKY/WX    TMP DP  RH WIND       PRES   REMARKS
MANKATO        PTCLDY    77  70  78 SE10      29.78S
NEW ULM        CLEAR     79  75  89 SE7       29.76S
ST JAMES       CLEAR     73  72  94 SE7       29.77S
FAIRMONT       CLEAR     77  75  94 SE5       29.77S
GLENCOE        PTCLDY    76  75  97 SE6       29.76F
FARIBAULT      CLOUDY    75  72  88 SE7       29.80S
OWATONNA       PTCLDY    75  70  83 SE7       29.81R
WASECA         CLEAR     72  70  94 E5        29.81R
ALBERT LEA     CLOUDY    75  73  94 SE3       29.81R
$$
MNZ078>079-086>088-094>096-240400-
   Southeast Minnesota

CITY           SKY/WX    TMP DP  RH WIND       PRES   REMARKS
ROCHESTER      CLOUDY    72  70  93 S8        29.84S
RED WING       CLOUDY    75  70  83 SE8       29.80R
STANTON        CLOUDY    75  70  83 SE6       29.79R
DODGE CENTER   CLOUDY    73  70  88 SE8       29.83R
WINONA         MOCLDY    73  70  88 CALM      29.83R
AUSTIN         CLOUDY    73  70  88 SE6       29.82R
PRESTON        PTCLDY    70  67  91 S7        29.85S
$$
ABBREVIATIONS USED IN REMARKS
   TC - TEMPERATURES IN CELSIUS
  WCI - WIND CHILL INDEX
   HX - HEAT INDEX
  VSB - VISIBILITY
$$




USA.gov is the U.S. government's official web portal to all federal, state and local government web resources and services.